Stations météo

réclame
Mon MeteoGroup
Emden, Allemagne (10200): Température de l'air & dewpoint: 18.10.2017 05:00:00 - 24.10.2017 05:00:00 (CEST)Emden, Allemagne (10200): Température de l'air 5cm & Température de l'air -5cm: 18.10.2017 05:00:00 - 24.10.2017 05:00:00 (CEST)Emden, Allemagne (10200): Température de l'air -20cm & Température de l'air -100cm: 18.10.2017 05:00:00 - 24.10.2017 05:00:00 (CEST)Emden, Allemagne (10200): Vitesse du vent & gusts: 18.10.2017 05:00:00 - 24.10.2017 05:00:00 (CEST)Emden, Allemagne (10200): Direction du vent: 18.10.2017 05:00:00 - 24.10.2017 05:00:00 (CEST)Emden, Allemagne (10200): reduced air pressure: 18.10.2017 05:00:00 - 24.10.2017 05:00:00 (CEST)Emden, Allemagne (10200): visibility: 18.10.2017 05:00:00 - 24.10.2017 05:00:00 (CEST)Emden, Allemagne (10200): Ensoleillement: 18.10.2017 05:00:00 - 24.10.2017 05:00:00 (CEST)Emden, Allemagne (10200): Quantités de précipitations: 18.10.2017 05:00:00 - 24.10.2017 05:00:00 (CEST)
Date & Time tt [°C] td [°C] tt 5cm [°C] tt -5cm [°C] tt -20cm [°C] tt -100cm [°C] ff [km/h] ff [knt] fx [km/h] fx [knt] dd ppp [hPa] vv [km] sd [min] rr [mm]
24.10.2017 05:00:00 10,4 9,9 10,2 10,4 12,1 14,0 7 4 15 8 S 1019,4 2,8 0 0,0
24.10.2017 04:00:00 10,0 9,2 9,6 10,2 12,2 14,0 11 6 14 8 SSE 1019,5 10 0 0,0
24.10.2017 03:00:00 9,3 8,5 7,8 10,1 12,3 14,0 8 4 12 7 S 1019,7 20 0 0,0
24.10.2017 02:00:00 9,7 8,8 7,0 10,3 12,4 14,0 6 4 13 7 S 1019,7 21 0 0,0
24.10.2017 01:00:00 9,5 8,9 5,4 10,7 12,5 14,0 5 3 11 6 SSE 1019,5 14 0 0,0
24.10.2017 00:00:00 11,1 9,9 10,1 11,0 12,6 14,0 8 4 16 9 WSW 1019,6 29 0 0,0
23.10.2017 23:00:00 11,0 10,7 10,6 10,8 12,7 14,0 10 5 16 8 WSW 1019,4 15 0 0,0
23.10.2017 22:00:00 10,2 9,6 6,3 11,1 12,8 14,0 6 3 12 6 WSW 1018,9 17 0 0,0
23.10.2017 21:00:00 10,1 9,2 7,4 11,5 12,9 14,0 6 3 12 6 WSW 1018,6 24 0 0,0
23.10.2017 20:00:00 10,5 9,1 8,8 12,1 12,9 14,0 9 5 16 9 W 1018,0 30 0 0,0
23.10.2017 19:00:00 10,4 9,0 8,3 12,9 12,8 14,0 10 5 20 11 W 1017,2 36 0 0,0
23.10.2017 18:00:00 13,0 9,3 11,3 13,6 12,7 14,0 11 6 32 18 WNW 1016,6 42 49 0,0
23.10.2017 17:00:00 13,7 10,5 15,6 14,0 12,6 14,0 14 8 31 17 NW 1015,8 12 28 0,0
23.10.2017 16:00:00 14,1 10,9 15,2 14,2 12,4 14,0 22 12 35 19 NW 1014,9 32 40 0,0
23.10.2017 15:00:00 14,4 11,1 15,9 14,0 12,3 14,0 19 11 37 20 NW 1013,9 13 24 0,0
23.10.2017 14:00:00 14,3 11,2 13,9 13,6 12,2 14,0 27 14 40 22 NW 1012,8 57 38 0,0
23.10.2017 13:00:00 13,9 12,1 15,0 12,8 12,1 14,0 21 11 47 25 WNW 1012,0 28 6 0,0
23.10.2017 12:00:00 13,7 12,1 13,4 11,8 12,1 14,0 34 18 46 25 W 1010,8 24 0 1,9
23.10.2017 11:00:00 11,8 11,2 11,7 11,4 12,1 14,0 24 13 45 24 WSW 1010,0 1,0 0 1,3
23.10.2017 10:00:00 11,0 10,4 10,8 11,2 12,1 14,0 25 14 40 22 SW 1009,9 2,3 0 2,7
23.10.2017 09:00:00 11,0 10,2 10,6 11,2 12,1 14,0 21 11 41 22 SW 1010,2 2,5 0 1,5
23.10.2017 08:00:00 11,4 10,0 10,7 11,2 12,1 14,0 21 11 42 23 SW 1010,4 6 0 0,0
23.10.2017 07:00:00 11,6 9,9 10,8 11,2 12,2 14,0 18 10 34 19 SW 1010,5 18 0 0,2
23.10.2017 06:00:00 11,7 9,9 10,8 11,2 12,2 14,0 16 9 34 18 SW 1010,5 19 0 0,2
23.10.2017 05:00:00 11,8 10,2 11,2 11,2 12,2 14,0 16 9 33 18 SW 1010,4 16 0 0,0
23.10.2017 04:00:00 11,5 10,2 10,8 11,2 12,2 14,0 16 9 35 19 WSW 1010,1 24 0 1,4
23.10.2017 03:00:00 11,4 10,5 11,0 11,3 12,3 14,0 19 11 32 17 WSW 1010,1 3,8 0 0,8
23.10.2017 02:00:00 11,1 10,7 10,9 11,3 12,3 14,0 12 7 28 15 SW 1010,0 3,0 0 2,8
23.10.2017 01:00:00 11,0 10,3 10,6 11,2 12,4 14,0 16 9 28 15 SSW 1009,9 20 0 0,2
23.10.2017 00:00:00 10,8 9,9 10,3 11,2 12,4 14,0 18 10 34 18 SSW 1009,8 19 0 0,1
22.10.2017 23:00:00 10,8 9,5 10,7 11,3 12,5 14,0 14 8 36 19 SW 1009,5 26 0 0,0
22.10.2017 22:00:00 10,6 8,8 10,4 11,3 12,5 14,0 21 11 33 18 SSW 1009,3 28 0 0,0
22.10.2017 21:00:00 10,6 8,6 10,2 11,6 12,5 14,0 18 10 29 16 SSW 1009,4 36 0 0,0
22.10.2017 20:00:00 11,1 8,9 10,7 11,8 12,5 14,0 14 8 24 13 SSW 1009,2 32 0 0,0
22.10.2017 19:00:00 11,4 9,2 10,6 12,2 12,5 14,0 16 8 26 14 SW 1008,9 34 0 0,0
22.10.2017 18:00:00 12,0 8,7 11,3 12,7 12,4 14,1 13 7 27 14 SW 1008,4 35 30 0,0
22.10.2017 17:00:00 11,6 9,4 11,1 12,9 12,3 14,1 13 7 33 18 SW 1007,9 38 16 0,0
22.10.2017 16:00:00 13,1 8,7 14,5 13,2 12,2 14,1 16 9 43 23 WSW 1007,4 17 22 0,0
22.10.2017 15:00:00 14,2 8,9 16,8 13,0 12,1 14,1 16 9 32 17 WSW 1006,8 12 40 0,0
22.10.2017 14:00:00 13,5 9,5 15,4 12,5 12,0 14,1 13 7 27 15 WSW 1006,4 13 32 0,0
22.10.2017 13:00:00 11,9 10,2 12,0 11,8 11,9 14,1 13 7 26 14 SW 1006,3 26 1 0,1
22.10.2017 12:00:00 11,2 10,4 11,4 11,1 11,9 14,1 17 9 33 18 SSW 1006,1 18 0 0,4
22.10.2017 11:00:00 10,5 9,5 10,4 10,6 11,9 14,1 20 11 33 18 SSW 1005,7 19 0 0,0
22.10.2017 10:00:00 9,9 8,9 9,5 10,3 12,0 14,1 16 9 36 19 S 1005,5 29 0 0,2
22.10.2017 09:00:00 9,5 8,5 9,2 10,2 12,1 14,1 21 11 38 21 S 1005,3 17 0 0,4
22.10.2017 08:00:00 9,8 8,2 9,1 10,1 12,1 14,1 21 11 38 20 S 1005,4 9 0 0,1
22.10.2017 07:00:00 10,4 7,1 9,5 10,1 12,2 14,1 21 11 36 20 S 1005,5 32 0 0,0
22.10.2017 06:00:00 10,6 7,0 9,8 10,0 12,3 14,1 20 11 38 21 S 1005,8 32 0 0,0
22.10.2017 05:00:00 11,0 7,3 10,1 10,1 12,4 14,1 19 11 35 19 S 1006,1 40 0 0,0
22.10.2017 04:00:00 10,9 8,0 9,2 10,2 12,6 14,1 19 10 32 18 S 1006,4 35 0 0,0
22.10.2017 03:00:00 10,4 8,0 8,7 10,4 12,7 14,1 18 10 28 15 S 1006,9 35 0 0,0
22.10.2017 02:00:00 11,0 7,9 9,2 10,6 12,8 14,1 17 9 29 16 S 1007,4 38 0 0,0
22.10.2017 01:00:00 11,0 7,9 9,0 10,8 12,9 14,1 15 8 31 17 S 1007,6 35 0 0,0
22.10.2017 00:00:00 12,0 8,0 9,8 11,1 13,0 14,1 14 7 24 13 S 1007,9 34 0 0,0
21.10.2017 23:00:00 10,8 8,6 8,5 11,3 13,0 14,1 13 7 19 11 SSE 1008,2 26 0 0,0
21.10.2017 22:00:00 12,7 9,1 10,3 11,5 13,1 14,1 16 9 29 16 SW 1008,5 31 0 0,0
21.10.2017 21:00:00 11,4 10,5 9,2 11,8 13,2 14,1 9 5 14 8 S 1008,2 10 0 0,0
21.10.2017 20:00:00 11,6 10,5 6,7 12,3 13,2 14,1 6 3 14 8 SSE 1008,3 11 0 0,0
21.10.2017 19:00:00 12,7 9,2 11,9 12,8 13,2 14,1 10 6 19 10 W 1008,4 38 0 0,0
21.10.2017 18:00:00 13,9 12,3 12,2 13,2 13,1 14,1 10 6 19 10 S 1008,1 13 45 0,0
21.10.2017 17:00:00 14,6 12,3 14,2 13,4 13,0 14,1 13 7 25 14 S 1008,1 20 33 0,0
21.10.2017 16:00:00 13,9 12,7 13,7 13,4 13,0 14,1 13 7 31 17 S 1008,3 10 3 0,0
21.10.2017 15:00:00 13,4 12,2 13,8 12,8 12,9 14,1 18 10 31 17 S 1008,3 10 0 0,0
21.10.2017 14:00:00 12,0 11,5 12,0 12,3 12,9 14,1 18 10 29 16 S 1008,7 8 0 0,5
21.10.2017 13:00:00 11,5 11,0 11,6 12,1 12,9 14,1 17 9 30 16 SSE 1008,9 1,8 0 0,4
21.10.2017 12:00:00 11,5 9,9 11,1 11,9 13,0 14,1 22 12 32 17 SSE 1009,1 3,3 0 0,3
21.10.2017 11:00:00 11,5 9,2 11,2 11,7 13,1 14,1 22 12 33 18 SE 1009,1 22 0 0,0
21.10.2017 10:00:00 11,0 8,7 10,7 11,5 13,1 14,1 22 12 29 16 SE 1009,6 20 0 0,1
21.10.2017 09:00:00 10,8 8,0 10,4 11,5 13,2 14,1 16 9 23 12 SSE 1009,8 20 0 0,0
21.10.2017 08:00:00 10,5 8,2 9,9 11,6 13,3 14,1 13 7 23 12 S 1010,2 23 0 0,0
21.10.2017 07:00:00 10,5 8,3 9,8 11,7 13,4 14,1 10 5 22 12 S 1010,1 21 0 0,0
21.10.2017 06:00:00 10,5 8,7 9,7 11,9 13,4 14,1 11 6 28 15 S 1010,3 19 0 0,0
21.10.2017 05:00:00 11,3 9,5 10,4 12,4 13,5 14,1 14 8 29 15 SSW 1010,3 20 0 0,0
21.10.2017 04:00:00 11,8 10,0 11,3 12,5 13,5 14,1 16 9 29 16 SSW 1010,1 19 0 0,0
21.10.2017 03:00:00 11,9 11,0 11,6 12,6 13,6 14,1 18 10 32 17 SSW 1010,2 14 0 0,0
21.10.2017 02:00:00 12,1 11,4 11,8 12,6 13,7 14,1 16 8 30 16 SSW 1009,9 18 0 0,5
21.10.2017 01:00:00 11,6 11,5 11,4 12,6 13,7 14,1 11 6 36 19 SW 1009,6 2,6 0 2,3
21.10.2017 00:00:00 11,7 11,1 11,3 12,8 13,8 14,1 24 13 37 20 SSW 1009,2 3,1 0 1,0
20.10.2017 23:00:00 12,0 11,0 11,7 12,9 13,9 14,1 16 9 41 22 S 1009,2 14 0 0,0
20.10.2017 22:00:00 12,3 11,1 11,9 13,1 13,9 14,1 21 11 40 21 SSW 1008,8 15 0 1,1
20.10.2017 21:00:00 12,4 11,3 11,7 13,3 14,0 14,1 25 14 41 22 SSW 1008,5 16 0 0,0
20.10.2017 20:00:00 12,5 11,1 12,0 13,6 14,0 14,1 22 12 41 22 S 1008,1 20 0 0,0
20.10.2017 19:00:00 12,7 11,0 12,2 13,9 14,0 14,1 21 11 43 23 S 1007,8 22 0 0,0
20.10.2017 18:00:00 13,3 10,7 13,1 14,3 14,0 14,1 23 12 43 23 S 1007,4 28 0 0,0
20.10.2017 17:00:00 13,9 10,6 13,2 14,8 13,9 14,1 18 10 45 24 S 1007,1 22 0 0,0
20.10.2017 16:00:00 15,6 9,5 15,2 15,1 13,8 14,1 17 9 37 20 SSW 1006,6 40 30 0,0
20.10.2017 15:00:00 16,6 10,9 18,4 15,3 13,6 14,1 18 10 32 17 SSW 1006,5 17 30 0,0
20.10.2017 14:00:00 16,9 11,4 19,3 15,1 13,5 14,1 20 11 33 18 S 1006,5 43 50 0,0
20.10.2017 13:00:00 16,0 12,7 17,9 14,2 13,5 14,1 21 11 35 19 S 1006,5 11 8 0,0
20.10.2017 12:00:00 15,2 12,9 15,1 13,8 13,4 14,1 23 13 35 19 SSE 1006,6 11 0 0,0
20.10.2017 11:00:00 14,5 12,8 14,3 13,4 13,4 14,1 24 13 35 19 SSE 1006,3 19 0 0,0
20.10.2017 10:00:00 14,0 12,7 13,2 13,1 13,4 14,1 23 12 43 23 SSE 1006,6 11 0 1,1
20.10.2017 09:00:00 14,6 12,9 13,6 13,1 13,4 14,1 23 12 39 21 SSE 1006,5 6 0 1,1
20.10.2017 08:00:00 15,1 12,1 14,1 12,9 13,5 14,1 19 10 27 15 SSE 1006,0 11 0 0,0
20.10.2017 07:00:00 14,4 12,1 13,0 13,0 13,5 14,1 16 9 27 15 SE 1006,6 10 0 0,0
20.10.2017 06:00:00 15,0 12,5 13,8 13,0 13,5 14,1 15 8 31 17 SE 1006,7 10 0 0,0
20.10.2017 05:00:00 14,8 12,4 13,5 12,9 13,5 14,1 18 10 27 15 SSE 1007,5 - 0 0,1
20.10.2017 04:00:00 14,5 12,4 13,2 12,8 13,6 14,1 12 7 18 10 SSE 1007,7 8 0 0,0
20.10.2017 03:00:00 14,0 12,3 12,8 12,7 13,6 14,1 12 7 17 9 SE 1008,1 7 0 0,0
20.10.2017 02:00:00 13,4 12,2 12,5 12,7 13,7 14,1 12 7 18 10 SE 1008,1 6 0 0,0
20.10.2017 01:00:00 12,6 11,6 11,5 12,7 13,8 14,1 13 7 20 11 SE 1008,1 5 0 0,0
20.10.2017 00:00:00 13,1 12,1 12,1 12,9 13,9 14,1 14 8 20 11 SE 1008,3 5 0 0,0
19.10.2017 23:00:00 12,9 12,0 11,8 13,0 13,9 14,1 13 7 18 10 SE 1008,8 4,5 0 0,0
19.10.2017 22:00:00 12,6 12,0 11,5 13,3 14,0 14,1 13 7 21 12 SE 1009,1 3,5 0 0,0
19.10.2017 21:00:00 13,0 12,2 11,6 13,7 14,0 14,1 12 7 19 10 ESE 1009,4 3,9 0 0,0
19.10.2017 20:00:00 13,8 12,7 12,4 14,2 14,0 14,1 12 6 19 10 ESE 1009,6 4,7 0 0,0
19.10.2017 19:00:00 14,8 13,3 13,4 14,8 13,9 14,1 14 8 20 11 E 1009,4 4,6 0 0,0
19.10.2017 18:00:00 16,0 14,0 14,8 15,4 13,7 14,1 11 6 17 9 E 1009,3 4,5 0 0,0
19.10.2017 17:00:00 17,3 14,4 17,0 15,8 13,5 14,1 12 6 18 10 ESE 1009,7 6 11 0,0
19.10.2017 16:00:00 17,9 14,5 18,2 15,8 13,3 14,1 14 7 20 11 ESE 1010,2 6 15 0,0
19.10.2017 15:00:00 17,8 14,6 19,3 15,5 13,1 14,1 14 8 20 11 ESE 1010,5 8 12 0,0
19.10.2017 14:00:00 16,7 13,7 17,6 14,9 13,0 14,1 15 8 23 12 SSE 1011,4 6 3 0,0
19.10.2017 13:00:00 15,8 13,7 17,6 14,2 12,8 14,1 15 8 20 11 SE 1011,8 4,5 11 0,0
19.10.2017 12:00:00 13,7 12,4 15,3 13,4 12,8 14,1 13 7 21 12 SE 1012,0 3,8 0 0,0
19.10.2017 11:00:00 12,2 12,1 13,1 12,6 12,7 14,1 15 8 21 11 SE 1011,9 1,6 0 0,0
19.10.2017 10:00:00 11,5 11,4 12,1 12,2 12,7 14,1 13 7 18 10 SE 1011,9 0,7 0 0,0
19.10.2017 09:00:00 11,4 11,4 11,6 11,7 12,7 14,1 11 6 19 10 SE 1012,0 1,0 0 0,0
19.10.2017 08:00:00 11,4 11,4 11,4 11,6 12,8 14,1 7 4 13 7 ESE 1011,8 1,0 0 0,0
19.10.2017 07:00:00 11,2 11,2 11,2 11,6 12,8 14,1 10 5 16 9 SE 1012,0 0,5 0 0,0
19.10.2017 06:00:00 11,0 11,0 11,0 11,5 12,9 14,1 10 5 14 8 SE 1012,2 0,2 0 0,0
19.10.2017 05:00:00 11,1 10,9 10,8 11,4 12,9 14,1 8 5 14 7 SE 1012,2 2,1 0 0,0
19.10.2017 04:00:00 10,6 10,2 10,2 11,3 13,0 14,1 8 5 12 6 ESE 1012,4 3,1 0 0,0
19.10.2017 03:00:00 10,5 10,1 10,1 11,3 13,1 14,1 7 4 10 5 ESE 1012,8 4,4 0 0,0
19.10.2017 02:00:00 9,7 9,3 8,8 11,4 13,2 14,1 6 4 9 5 SE 1012,7 4,8 0 0,0
19.10.2017 01:00:00 9,8 9,4 7,6 11,6 13,2 14,1 4 2 6 4 E 1013,0 5 0 0,0
19.10.2017 00:00:00 10,8 9,9 9,2 11,9 13,3 14,1 0 0 9 5 N 1013,2 8 0 0,0
18.10.2017 23:00:00 10,9 10,2 9,1 12,1 13,4 14,1 7 4 11 6 E 1013,4 9 0 0,0
18.10.2017 22:00:00 11,3 10,6 10,6 12,3 13,4 14,1 8 4 16 8 E 1013,5 8 0 0,0
18.10.2017 21:00:00 11,4 10,0 10,3 12,4 13,5 14,1 9 5 12 7 ENE 1013,6 10 0 0,0
18.10.2017 20:00:00 11,0 9,6 9,7 12,8 13,5 14,1 9 5 13 7 E 1013,6 10 0 0,0
18.10.2017 19:00:00 12,3 9,9 10,8 13,3 13,4 14,1 9 5 13 7 ENE 1013,4 12 0 0,0
18.10.2017 18:00:00 13,6 10,3 12,5 13,9 13,3 14,1 10 6 15 8 ENE 1013,3 15 0 0,0
18.10.2017 17:00:00 15,0 10,9 15,2 14,2 13,2 14,1 6 4 14 8 NE 1013,6 16 0 0,0
18.10.2017 16:00:00 15,3 10,5 15,7 14,2 13,0 14,1 8 4 13 7 E 1013,7 17 0 0,0
18.10.2017 15:00:00 15,1 10,7 15,7 13,9 12,9 14,1 8 4 13 7 ENE 1014,2 15 0 0,0
18.10.2017 14:00:00 14,6 10,3 15,1 13,6 12,7 14,1 9 5 14 8 ENE 1014,5 16 0 0,0
18.10.2017 13:00:00 14,3 10,8 15,2 13,4 12,6 14,1 9 5 13 7 E 1014,9 13 23 0,0
18.10.2017 12:00:00 12,9 11,1 14,0 12,3 12,6 14,1 6 3 8 4 ENE 1015,2 9 0 0,0
18.10.2017 11:00:00 12,0 10,7 12,9 11,5 12,6 14,1 4 2 8 4 SE 1015,4 6 12 0,0
18.10.2017 10:00:00 9,8 9,5 10,8 10,4 12,7 14,1 5 3 7 4 SSE 1015,5 6 0 0,0
18.10.2017 09:00:00 6,9 6,7 6,2 9,8 12,9 14,1 0 0 4 2 N 1015,3 0,4 0 0,0
18.10.2017 08:00:00 7,0 7,0 4,3 9,9 13,0 14,1 3 2 6 4 SE 1015,4 0,3 0 0,0
18.10.2017 07:00:00 6,7 6,7 4,2 10,1 13,2 14,1 6 3 8 4 SE 1015,7 0,4 0 0,0
18.10.2017 06:00:00 9,5 9,2 5,8 10,4 13,3 14,1 3 1 9 5 SW 1015,6 8 0 0,0
18.10.2017 05:00:00 9,3 9,2 5,1 10,5 13,5 14,1 4 2 7 4 SSW 1015,9 8 0 0,0

tt = Température de l'air
td = dewpoint
tt 5cm = Température de l'air 5cm
tt -5cm = Température de l'air -5cm
tt -20cm = Température de l'air -20cm
tt -100cm = Température de l'air -100cm
ff = Vitesse du vent
fx = gusts
dd = Direction du vent
ppp = reduced air pressure
vv = visibility
sd = Ensoleillement
rr = Quantités de précipitations

stations d'obs. à proximité